Location: Seasalter
(51.3333°N, 1.0167°E)
Time: 04:43:01
(UTC+00:00)

ATLAS 5 CENTAUR R/B - Pass Details

Date: 23 April 2024
Orbit: 421 x 1170 km, 63.3° (Epoch: 18 May)

Event Time Altitude Azimuth Distance (km) Brightness Sun altitude
Rises 00:03:14 0° 314° (NW) 2,750 5.5 -26.0°
Reaches altitude 10° 00:05:29 10° 326° (NW) 1,955 4.8 -26.0°
Maximum altitude 00:09:26 31° 29° (NNE) 1,213 3.5 -25.9°
Drops below altitude 10° 00:14:12 10° 91° (E) 2,376 4.6 -25.9°
Sets 00:17:12 0° 101° (ESE) 3,453 5.3 -25.8°
